weather.gov     
National Weather Service

Terminal Aerodrome Forecast
NWS Homepage
This page is being discontinued on March 12, 2014.
The same data is available at this site. Please update your bookmarks.
Thank you, and we apologize for the inconvenience.
Please send an email to SR-SRH.Webmaster@noaa.gov with any concerns.


Current Version
Previous Version:    01  02  03  04  05  06  07  08  09  10  11  12  13  14  15  16  17  18  19  20  21  22  23  24  25  26  27  28  29  
[Printable]
948
FTUS44 KCRP 291700
TAFCRP
TAF
KCRP 291731Z 2918/3018 13006KT P6SM SCT035 BKN060
     FM300200 VRB06KT P6SM SCT015 BKN250
     FM300800 VRB04KT P6SM SCT015 BKN040 PROB30 3008/3014 -TSRA
      BKN025CB
     FM301400 16007KT P6SM BKN050=


U.S. Dept. of Commerce
NOAA National Weather Service
1325 East West Highway
Silver Spring, MD 20910
E-mail: w-nws.webmaster@noaa.gov
Page last modified: May 16, 2007
NATIONAL WEATHER SERVICE: for Safety, for Work, for Fun - FOR LIFE